Powrót do katalogu

COSMOS 449

AktywnyMilitariaLEO
NORAD 5552·PAYLOAD·🇷🇺 Russia

Wystrzelony Oct 13, 1971 z Plesetsk Cosmodrome

Loading…

Następne Przeloty (najbliższe 24 godziny)

TLE

ŚwieżeSource: Space-Track

Epoka: Sep 14, 2026, 09:11 UTC

1 05552U 71086F   26257.38277807 -.00000027  00000-0 -87232-4 0  9990
2 05552  74.0268  58.6750 0037457 206.3059 162.4946 12.38734786483532

Śledź COSMOS 449 w czasie rzeczywistym z AllMySat

Download on the App Store